Regional Weather Roundup
Issued by NWS Sterling, VA

Home | Current Version | Previous Version | Text Only | Print | Product List | Glossary Off
Versions: 1 2 3 4 5 6 7 8 9 10 11 12 13 14 15 16 17 18 19 20 21 22 23 24 25 26 27 28 29 30 31 32 33 34 35 36 37 38 39 40 41 42 43 44 45 46 47 48 49 50

000
ASUS41 KLWX 111110
RWRLWX

REGIONAL WEATHER ROUNDUP
NATIONAL WEATHER SERVICE BALTIMORE MD/WASHINGTON DC
600 AM EST THU FEB 11 2016

Note: "FAIR" indicates few or no clouds below 12,000 feet
with no significant weather and/or obstructions to visibility.
 TC=TEMPERATURE CELSIUS

 * =Non NWS site. Station does not report precipitation (e.g. rain,
    snow, etc.), thunder, or fog.

DCZ001-MDZ009-015-VAZ040>042-051-053>054-111200-
WASHINGTON METRO

CITY           SKY/WX    TMP DP  RH WIND       PRES   REMARKS
WASHINGTON NAT FAIR      22   5  48 W8        30.05R WCI  12
DULLES         FAIR      19   3  49 W5        30.04R
ANDREWS AFB    CLEAR     21   6  51 W15       30.01R WCI   8
FT BELVOIR     FAIR      22   2  43 W7        30.06R
QUANTICO       FAIR      23   5  46 NW9       30.08R WCI  13
COLLEGE PARK*  FAIR      23   3  42 W13G20    30.03R WCI  11
LEESBURG*      FAIR      21   9  58 W17G29    30.03R WCI   7
MANASSAS*      FAIR      19   5  53 W5        30.06R
GAITHERSBURG*  CLEAR     18   1  49 W10G20    30.03R WCI   6

$$

MDZ006>007-011-014-111200-
BALTIMORE METRO

CITY           SKY/WX    TMP DP  RH WIND       PRES   REMARKS
BWI AIRPORT    PTCLDY    20   6  55 W9        30.00R WCI   9
MD SCIENCE CTR   N/A     22   3  44 MISG      30.03R
MARTIN STATE   MOCLDY    23   9  54 W18G26    30.01R WCI   9
ANNAPOLIS      CLEAR     22   6  50 W9        30.01R WCI  12
FORT MEADE*    CLEAR     21   5  49 W16G23    30.04R WCI   7

$$

MDZ012-015-019>023-111200-
MARYLAND EASTERN SHORE

CITY           SKY/WX    TMP DP  RH WIND       PRES   REMARKS
OCEAN CITY     CLEAR     24   7  48 NW12G17   30.00R WCI  13
SALISBURY      PTCLDY    24   7  48 W12       30.01R WCI  13
BAY BRIDGE AP*   N/A     23   5  46 W15G26    30.02R WCI  10
CAMBRIDGE*     PTCLDY    23   5  46 NW15G24   30.02R WCI  10
EASTON*        CLEAR     25   9  50 NW18G26   30.05R WCI  11

$$

MDZ017>025-111200-
SOUTHERN MARYLAND

CITY           SKY/WX    TMP DP  RH WIND       PRES   REMARKS
PATUXENT RIVER PTCLDY    23   5  46 W12       30.04R WCI  12
ST INIGOES     CLEAR     24   7  48 W10G20    30.04R WCI  14
LEONARDTOWN*     N/A     23   5  46 MISG        N/A

$$

MDZ003>005-111200-
NORTH CENTRAL MARYLAND

CITY           SKY/WX    TMP DP  RH WIND       PRES   REMARKS
FREDERICK*     NOT AVBL
HAGERSTOWN APT MOCLDY    17   4  56 W12       29.97R WCI   4
WESTMINSTER*   PTCLDY    16   9  73 W15G21    29.94R WCI   1

$$

MDZ501>502-111200-
WESTERN MARYLAND

CITY           SKY/WX    TMP DP  RH WIND       PRES   REMARKS
OAKLAND*       CLOUDY     3   1  92 W14G25    29.83R FOG     WCI -15
CUMBERLAND*    PTCLDY    18   5  57 SW13G18   30.05R WCI   4

$$

VAZ025>031-111200-
SHENANDOAH VALLEY

CITY           SKY/WX    TMP DP  RH WIND       PRES   REMARKS
WINCHESTER*    FAIR      19   5  53 W7        30.01R
FRONT ROYAL*   PTSUNNY   19   1  45 SW7       30.00R
LURAY*         FAIR      18   1  49 SW7       30.01R
NEW MARKET*    FAIR      16   0  49 NW7       30.00S
STAUNTON*      FAIR      17   3  53 W5        30.02S
WAYNESBORO*    FAIR      13  -3  48 W7        29.98S

$$

WVZ021-048>050-054>055-111200-
EASTERN WEST VIRGINIA PANHANDLE

CITY           SKY/WX    TMP DP  RH WIND       PRES   REMARKS
MARTINSBURG    FAIR      16   2  54 W6        30.01R
PETERSBURG*    MOCLDY    17   2  52 W9        30.02R WCI   6

$$

VAZ036>039-050-111200-
CENTRAL FOOTHILLS

CITY           SKY/WX    TMP DP  RH WIND       PRES   REMARKS
CHARLOTTESVILL FAIR      19  -2  39 W8        30.04R WCI   9
CULPEPER*      FAIR      20  -1  40 NW5       30.06S
ORANGE*        FAIR      21   3  45 SW7       30.06R
GORDONSVILLE*  FAIR      19   0  43 CALM      30.05R
WARRENTON*     FAIR      20   7  56 W6        30.04R

$$

VAZ055>057-111200-
NORTH AND CENTRAL PIEDMONT

CITY           SKY/WX    TMP DP  RH WIND       PRES   REMARKS
FREDERICKSBRG* FAIR      20   9  61 W3        30.06R
STAFFORD*      FAIR      20   4  48 W9        30.10R WCI  10

$$

NCZ024-NYZ072-PAZ021-071-VAZ022-071-111200-
OTHER REGIONAL OBSERVATIONS

CITY           SKY/WX    TMP DP  RH WIND       PRES   REMARKS
NEW YORK CITY  MOCLDY    24   0  35 W9        29.85R WCI  14
PHILADELPHIA   PTCLDY    23   7  50 W14G21    29.94R WCI  11
PITTSBURGH     LGT SNOW  12   5  73 W16G25    29.99R WCI  -5
ROANOKE        FAIR      17   2  51 NW15      30.08R WCI   2
RICHMOND       FAIR      21   3  45 W13       30.08R WCI   9
RALEIGH        PTCLDY    21   5  50 CALM      30.15R

$$

ANZ530>537-111200-
MARINE OBSERVATIONS

STATION/POSITION TIME  TEMP    WIND        PRES
                       AIR SEA DIR/SP/G
                 (UTC) (F)     (DEG/KT/KT) (MB)
THOMAS PT LIGHT  1100   23 38  290/ 20/ 22 1017.2R
BALT KEY BRIDGE  1000   23                   N/A
COVE POINT       1000   23                   N/A
LEWISETTA        1000   24                   N/A
SOLOMONS ISLAND  1000   25                   N/A
PINEY POINT      1024          330/ 25/ 27   N/A

$$




USA.gov is the U.S. government's official web portal to all federal, state and local government web resources and services.